FW2000 Weather Reports


Display with metric or nautical units.
time (UTC)temp
F
wind
direction
speed
MPH
gust
MPH
rain 1hr
in
rain 24hr
in
rain mn
in
humidity
%
barometer
mb
20260905003555 70 265 3.0 7.0 0.00 0.00 0.00 38 1014.1
20260905003055 70 270 3.0 8.0 0.00 0.00 0.00 38 1014.0
20260905002554 71 268 3.0 9.0 0.00 0.00 0.00 37 1014.0
20260905002055 70 232 2.0 9.0 0.00 0.00 0.00 37 1014.0
20260905001555 71 261 4.0 10.0 0.00 0.00 0.00 36 1013.9
20260905001054 71 247 5.0 10.0 0.00 0.00 0.00 36 1014.0
20260905000555 71 277 6.0 11.0 0.00 0.00 0.00 35 1013.9
20260905000054 71 283 7.0 11.0 0.00 0.00 0.00 36 1013.9
20260904235555 71 277 3.0 8.0 0.00 0.00 0.00 36 1013.9
20260904235053 71 279 4.0 8.0 0.00 0.00 0.00 35 1013.9
20260904234554 71 257 3.0 12.0 0.00 0.00 0.00 36 1013.9
20260904234052 71 280 2.0 10.0 0.00 0.00 0.00 37 1013.8
20260904233552 72 257 3.0 10.0 0.00 0.00 0.00 37 1014.0
20260904233052 73 204 4.0 8.0 0.00 0.00 0.00 38 1013.9
20260904232551 73 270 1.0 11.0 0.00 0.00 0.00 38 1013.9
20260904232052 73 213 5.0 11.0 0.00 0.00 0.00 40 1013.9
20260904231551 73 205 3.0 13.0 0.00 0.00 0.00 41 1013.9
20260904231051 72 284 6.0 13.0 0.00 0.00 0.00 42 1013.8
20260904230554 72 257 4.0 10.0 0.00 0.00 0.00 42 1013.7
20260904230057 72 224 6.0 10.0 0.00 0.00 0.00 41 1013.9
20260904225549 72 184 5.0 12.0 0.00 0.00 0.00 42 1014.0
20260904225050 71 286 3.0 14.0 0.00 0.00 0.00 43 1014.0
20260904224604 72 209 4.0 9.0 0.00 0.00 0.00 42 1014.0
20260904224052 73 196 3.0 11.0 0.00 0.00 0.00 42 1014.1
20260904223552 72 246 4.0 10.0 0.00 0.00 0.00 44 1014.1
20260904223048 72 258 5.0 11.0 0.00 0.00 0.00 45 1014.1
20260904222548 71 186 3.0 17.0 0.00 0.00 0.00 46 1014.1
20260904222048 73 225 8.0 17.0 0.00 0.00 0.00 44 1014.1
20260904221547 72 238 5.0 11.0 0.00 0.00 0.00 45 1014.1
20260904221046 72 260 3.0 14.0 0.00 0.00 0.00 45 1014.2
20260904220546 71 171 8.0 14.0 0.00 0.00 0.00 45 1014.2
20260904220044 71 190 6.0 12.0 0.00 0.00 0.00 45 1014.1
20260904215543 70 171 5.0 19.0 0.00 0.00 0.00 46 1014.1
20260904215043 69 202 6.0 19.0 0.00 0.00 0.00 48 1014.2
20260904214544 69 211 10.0 16.0 0.00 0.00 0.00 47 1014.0
20260904214043 70 185 8.0 15.0 0.00 0.00 0.00 48 1014.1
20260904213545 71 211 5.0 12.0 0.00 0.00 0.00 47 1014.1
20260904213043 70 206 5.0 17.0 0.00 0.00 0.00 47 1014.2
20260904212543 71 248 7.0 17.0 0.00 0.00 0.00 47 1014.2
20260904212041 70 209 6.0 15.0 0.00 0.00 0.00 48 1014.2
20260904211541 70 194 8.0 15.0 0.00 0.00 0.00 49 1014.2
20260904211044 69 169 7.0 13.0 0.00 0.00 0.00 50 1014.1
20260904210541 70 178 7.0 13.0 0.00 0.00 0.00 49 1014.1
20260904210041 70 222 2.0 12.0 0.00 0.00 0.00 50 1014.1
20260904205541 70 173 3.0 10.0 0.00 0.00 0.00 50 1014.1
20260904205039 71 123 2.0 10.0 0.00 0.00 0.00 51 1014.1
20260904204539 70 81 2.0 10.0 0.00 0.00 0.00 52 1014.0
20260904204041 69 180 2.0 10.0 0.00 0.00 0.00 54 1014.0
20260904203537 68 254 2.0 8.0 0.00 0.00 0.00 59 1014.0
20260904203044 67 251 4.0 8.0 0.00 0.00 0.00 61 1014.0
20260904202537 67 242 3.0 8.0 0.00 0.00 0.00 61 1014.0
20260904202036 67 248 2.0 8.0 0.00 0.00 0.00 62 1013.9
20260904201536 67 231 3.0 8.0 0.00 0.00 0.00 62 1013.9
20260904201036 67 277 2.0 11.0 0.00 0.00 0.00 62 1013.9
20260904200536 67 278 4.0 11.0 0.00 0.00 0.00 63 1013.7
20260904200035 66 276 2.0 8.0 0.00 0.00 0.00 63 1013.8
20260904195535 67 286 4.0 8.0 0.00 0.00 0.00 62 1013.7
20260904195036 67 265 2.0 11.0 0.00 0.00 0.00 63 1013.7
20260904194535 67 277 5.0 11.0 0.00 0.00 0.00 62 1013.8
20260904194035 67 277 5.0 10.0 0.00 0.00 0.00 62 1013.8
20260904193534 67 300 3.0 10.0 0.00 0.00 0.00 63 1013.9
20260904193034 67 280 4.0 8.0 0.00 0.00 0.00 64 1013.9
20260904192537 67 262 2.0 9.0 0.00 0.00 0.00 65 1014.0
20260904192033 67 237 4.0 10.0 0.00 0.00 0.00 64 1014.0
20260904191533 67 275 4.0 10.0 0.00 0.00 0.00 65 1014.1
20260904191034 67 294 6.0 11.0 0.00 0.00 0.00 65 1014.0
20260904190535 66 288 3.0 8.0 0.00 0.00 0.00 67 1014.1
20260904190033 66 273 2.0 8.0 0.00 0.00 0.00 66 1014.1
20260904185532 67 186 2.0 6.0 0.00 0.00 0.00 66 1014.1
20260904185035 66 194 1.0 7.0 0.00 0.00 0.00 66 1014.1
20260904184535 67 194 3.0 7.0 0.00 0.00 0.00 66 1014.1
20260904184033 66 245 2.0 8.0 0.00 0.00 0.00 67 1014.1
20260904183533 66 214 4.0 8.0 0.00 0.00 0.00 66 1014.1
20260904183031 67 282 3.0 8.0 0.00 0.00 0.00 67 1014.1
20260904182530 66 179 2.0 10.0 0.00 0.00 0.00 66 1014.1
20260904182031 66 180 6.0 10.0 0.00 0.00 0.00 67 1014.1
20260904181530 67 286 3.0 7.0 0.00 0.00 0.00 66 1014.0
20260904181030 66 226 2.0 8.0 0.00 0.00 0.00 67 1014.0
20260904180528 66 150 3.0 8.0 0.00 0.00 0.00 68 1014.0
20260904180025 65 188 3.0 7.0 0.00 0.00 0.00 70 1014.0
20260904175525 65 72 2.0 6.0 0.00 0.00 0.00 73 1014.1
20260904175023 63 171 2.0 5.0 0.00 0.00 0.00 73 1014.1
20260904174523 63 173 1.0 4.0 0.00 0.00 0.00 74 1014.0
20260904174023 63 216 0.0 3.0 0.00 0.00 0.00 76 1014.0
20260904173523 63 269 0.0 7.0 0.00 0.00 0.00 78 1014.0
20260904173031 62 161 3.0 7.0 0.00 0.00 0.00 77 1014.0
20260904172523 62 273 2.0 5.0 0.00 0.00 0.00 78 1014.0
20260904172022 61 265 2.0 5.0 0.00 0.00 0.00 80 1014.0
20260904171520 61 205 2.0 7.0 0.00 0.00 0.00 81 1014.0
20260904171020 61 275 2.0 7.0 0.00 0.00 0.00 81 1013.9
20260904170519 61 279 3.0 8.0 0.00 0.00 0.00 82 1013.8
20260904170018 60 267 3.0 8.0 0.00 0.00 0.00 82 1013.6
20260904165517 60 279 3.0 7.0 0.00 0.00 0.00 83 1013.7
20260904165017 60 263 3.0 7.0 0.00 0.00 0.00 83 1013.6
20260904164516 60 256 2.0 7.0 0.00 0.00 0.00 83 1013.5
20260904164016 60 277 2.0 5.0 0.00 0.00 0.00 84 1013.6
20260904163514 59 224 2.0 5.0 0.00 0.00 0.00 84 1013.5
20260904163014 59 280 2.0 7.0 0.00 0.00 0.00 84 1013.5
20260904162613 59 270 4.0 7.0 0.00 0.00 0.00 84 1013.3
20260904162013 59 286 2.0 4.0 0.00 0.00 0.00 84 1013.2
20260904161511 59 226 1.0 4.0 0.00 0.00 0.00 85 1013.3
20260904161012 59 277 1.0 4.0 0.00 0.00 0.00 84 1013.1
20260904160511 59 271 1.0 4.0 0.00 0.00 0.00 84 1013.2
20260904160016 59 247 1.0 3.0 0.00 0.00 0.00 84 1013.2
20260904155512 59 248 0.0 4.0 0.00 0.00 0.00 85 1013.2
20260904155008 58 246 1.0 7.0 0.00 0.00 0.00 85 1013.1
20260904154508 58 281 2.0 7.0 0.00 0.00 0.00 85 1013.1
20260904154006 58 277 2.0 5.0 0.00 0.00 0.00 85 1013.1
20260904153505 58 265 2.0 6.0 0.00 0.00 0.00 85 1013.1
20260904153005 58 278 3.0 6.0 0.00 0.00 0.00 85 1013.1
20260904152505 59 206 0.0 2.0 0.00 0.00 0.00 85 1013.1
20260904152002 58 173 1.0 2.0 0.00 0.00 0.00 84 1013.0
20260904151502 58 94 0.0 3.0 0.00 0.00 0.00 84 1013.0
20260904151002 58 90 0.0 3.0 0.00 0.00 0.00 84 1013.0
20260904150501 58 93 0.0 0.0 0.00 0.00 0.00 84 1013.0
20260904150004 58 93 0.0 1.0 0.00 0.00 0.00 84 1012.9
20260904145601 58 93 0.0 1.0 0.00 0.00 0.00 85 1012.8
20260904145100 58 91 0.0 0.0 0.00 0.00 0.00 85 1012.8
20260904144602 58 91 0.0 0.0 0.00 0.00 0.00 85 1012.8
20260904144058 58 91 0.0 0.0 0.00 0.00 0.00 85 1012.7
20260904143557 57 91 0.0 0.0 0.00 0.00 0.00 85 1012.7
20260904143056 57 91 0.0 0.0 0.00 0.00 0.00 85 1012.6
20260904142555 58 91 0.0 0.0 0.00 0.00 0.00 85 1012.6
20260904142054 58 90 0.0 0.0 0.00 0.00 0.00 85 1012.5
20260904141555 57 90 0.0 0.0 0.00 0.00 0.00 84 1012.4
20260904141051 58 90 0.0 0.0 0.00 0.00 0.00 84 1012.5
20260904140550 58 90 0.0 0.0 0.00 0.00 0.00 84 1012.5
20260904135548 58 90 0.0 0.0 0.00 0.00 0.00 84 1012.4
20260904135048 58 90 0.0 0.0 0.00 0.00 0.00 84 1012.3
20260904134550 58 90 0.0 0.0 0.00 0.00 0.00 83 1012.3
20260904134046 58 91 0.0 0.0 0.00 0.00 0.00 83 1012.2
20260904133545 58 91 0.0 0.0 0.00 0.00 0.00 83 1012.2
20260904133052 58 90 0.0 1.0 0.00 0.00 0.00 83 1012.2
20260904132546 58 90 0.0 1.0 0.00 0.00 0.00 83 1012.1
20260904132046 58 90 0.0 0.0 0.00 0.00 0.00 82 1012.1
20260904131547 58 90 0.0 0.0 0.00 0.00 0.00 82 1012.1
20260904131048 58 91 0.0 0.0 0.00 0.00 0.00 82 1012.0
20260904130543 58 90 0.0 0.0 0.00 0.00 0.00 82 1012.0
20260904130051 58 90 0.0 0.0 0.00 0.00 0.00 82 1011.8
20260904125543 58 90 0.0 1.0 0.00 0.00 0.00 82 1011.8
20260904125043 58 90 0.0 4.0 0.00 0.00 0.00 82 1011.8
20260904124549 58 90 2.0 4.0 0.00 0.00 0.00 83 1011.7
20260904124042 58 90 1.0 4.0 0.00 0.00 0.00 83 1011.6
20260904123542 58 92 1.0 4.0 0.00 0.00 0.00 83 1011.6
20260904123043 58 95 1.0 4.0 0.00 0.00 0.00 83 1011.4
20260904122544 58 94 2.0 4.0 0.00 0.00 0.00 83 1011.5
20260904122042 58 117 0.0 2.0 0.00 0.00 0.00 84 1011.5
20260904121542 58 117 1.0 2.0 0.00 0.00 0.00 83 1011.6
20260904121040 58 116 0.0 3.0 0.00 0.00 0.00 84 1011.7
20260904120540 58 116 0.0 3.0 0.00 0.00 0.00 84 1011.7
20260904120040 58 116 1.0 2.0 0.00 0.00 0.00 84 1011.7
20260904115538 58 115 0.0 4.0 0.00 0.00 0.00 84 1011.7
20260904115037 58 115 0.0 4.0 0.00 0.00 0.00 84 1011.8
20260904114539 58 248 1.0 3.0 0.00 0.00 0.00 84 1011.7
20260904114037 58 264 1.0 2.0 0.00 0.00 0.00 84 1011.8
20260904113536 58 265 0.0 0.0 0.00 0.00 0.00 84 1011.8
20260904113036 58 265 0.0 0.0 0.00 0.00 0.00 83 1011.9
20260904112534 58 265 0.0 0.0 0.00 0.00 0.00 83 1012.0
20260904112032 58 265 0.0 0.0 0.00 0.00 0.00 83 1012.0
20260904111538 58 265 0.0 0.0 0.00 0.00 0.00 83 1011.9
20260904111030 58 265 0.0 0.0 0.00 0.00 0.00 83 1011.9
20260904110529 58 265 0.0 0.0 0.00 0.00 0.00 83 1011.9
20260904110027 58 265 0.0 0.0 0.00 0.00 0.00 83 1011.9
20260904105527 58 265 0.0 0.0 0.00 0.00 0.00 83 1011.9
20260904105027 58 265 0.0 0.0 0.00 0.00 0.00 83 1011.9
20260904104526 58 265 0.0 0.0 0.00 0.00 0.00 83 1011.9
20260904104028 58 265 0.0 0.0 0.00 0.00 0.00 83 1011.8
20260904103526 58 265 0.0 0.0 0.00 0.00 0.00 83 1011.8
20260904103027 58 265 0.0 0.0 0.00 0.00 0.00 83 1011.8
20260904102531 58 265 0.0 0.0 0.00 0.00 0.00 82 1011.8
20260904102024 58 265 0.0 1.0 0.00 0.00 0.00 82 1011.8
20260904101525 58 265 0.0 1.0 0.00 0.00 0.00 82 1011.7
20260904101026 58 265 0.0 0.0 0.00 0.00 0.00 82 1011.6
20260904100525 58 265 0.0 0.0 0.00 0.00 0.00 82 1011.5
20260904100025 58 265 0.0 0.0 0.00 0.00 0.00 81 1011.6
20260904095524 58 265 0.0 0.0 0.00 0.00 0.00 82 1011.7
20260904095023 58 265 0.0 0.0 0.00 0.00 0.00 82 1011.5
20260904094523 58 265 0.0 3.0 0.00 0.00 0.00 82 1011.5
20260904094022 58 265 1.0 3.0 0.00 0.00 0.00 81 1011.5
20260904093522 58 263 0.0 3.0 0.00 0.00 0.00 81 1011.5
20260904093023 58 269 1.0 3.0 0.00 0.00 0.00 80 1011.5
20260904092522 59 269 2.0 4.0 0.00 0.00 0.00 80 1011.5
20260904092020 59 272 2.0 4.0 0.00 0.00 0.00 78 1011.5
20260904091518 59 271 1.0 4.0 0.00 0.00 0.00 77 1011.5
20260904091017 60 273 2.0 4.0 0.00 0.00 0.00 75 1011.5
20260904090516 60 269 2.0 4.0 0.00 0.00 0.00 73 1011.5
20260904090016 60 265 1.0 3.0 0.00 0.00 0.00 72 1011.7
20260904085514 61 265 1.0 3.0 0.00 0.00 0.00 70 1011.6
20260904085013 61 267 1.0 4.0 0.00 0.00 0.00 68 1011.6
20260904084514 62 267 1.0 4.0 0.00 0.00 0.00 67 1011.5
20260904084013 62 101 0.0 2.0 0.00 0.00 0.00 63 1011.5
20260904083512 63 98 0.0 0.0 0.00 0.00 0.00 62 1011.6
20260904083113 63 98 0.0 0.0 0.00 0.00 0.00 62 1011.6
20260904082512 63 98 0.0 2.0 0.00 0.00 0.00 62 1011.7
20260904082011 63 98 0.0 4.0 0.00 0.00 0.00 61 1011.7
20260904081510 63 98 2.0 6.0 0.00 0.00 0.00 60 1011.6
20260904081010 63 98 2.0 6.0 0.00 0.00 0.00 60 1011.6
20260904080513 63 93 2.0 6.0 0.00 0.00 0.00 60 1011.7
20260904080010 63 97 2.0 6.0 0.00 0.00 0.00 61 1011.7
20260904075509 63 94 2.0 6.0 0.00 0.00 0.00 62 1011.7
20260904075008 63 94 2.0 7.0 0.00 0.00 0.00 62 1011.7
20260904074507 63 96 2.0 7.0 0.00 0.00 0.00 62 1011.6
20260904074006 62 130 2.0 4.0 0.00 0.00 0.00 64 1011.7
20260904073509 62 154 2.0 5.0 0.00 0.00 0.00 66 1011.6
20260904073010 62 144 2.0 6.0 0.00 0.00 0.00 67 1011.7
20260904072506 62 123 1.0 5.0 0.00 0.00 0.00 67 1011.8
20260904072005 62 167 1.0 3.0 0.00 0.00 0.00 68 1011.7
20260904071504 62 168 1.0 3.0 0.00 0.00 0.00 67 1011.7
20260904071004 62 209 0.0 2.0 0.00 0.00 0.00 66 1011.8
20260904070504 62 209 0.0 3.0 0.00 0.00 0.00 66 1011.9
20260904070002 62 209 1.0 3.0 0.00 0.00 0.00 66 1011.9
20260904065500 62 210 0.0 2.0 0.00 0.00 0.00 66 1011.8
20260904065001 62 210 1.0 3.0 0.00 0.00 0.00 66 1011.8
20260904064500 62 210 1.0 3.0 0.00 0.00 0.00 67 1011.9
20260904064003 63 212 0.0 2.0 0.00 0.00 0.00 67 1011.9
20260904063501 63 213 0.0 2.0 0.00 0.00 0.00 66 1011.9
20260904063107 63 213 0.0 2.0 0.00 0.00 0.00 66 1011.9
20260904062601 63 213 0.0 1.0 0.00 0.00 0.00 67 1012.0
20260904062100 63 213 0.0 0.0 0.00 0.00 0.00 67 1011.9
20260904061603 63 213 0.0 2.0 0.00 0.00 0.00 67 1012.0
20260904061100 63 213 0.0 2.0 0.00 0.00 0.00 67 1011.9
20260904060600 63 213 1.0 2.0 0.00 0.00 0.00 66 1012.0
20260904060105 63 213 0.0 0.0 0.00 0.00 0.00 67 1012.1
20260904055559 63 213 0.0 0.0 0.00 0.00 0.00 66 1012.1
20260904055059 63 213 0.0 0.0 0.00 0.00 0.00 67 1012.1
20260904054559 63 213 0.0 1.0 0.00 0.00 0.00 66 1012.1
20260904054059 63 213 0.0 1.0 0.00 0.00 0.00 66 1012.1
20260904053558 63 213 0.0 0.0 0.00 0.00 0.00 66 1012.1
20260904053100 63 213 0.0 3.0 0.00 0.00 0.00 66 1012.1
20260904052558 63 213 1.0 3.0 0.00 0.00 0.00 66 1012.1
20260904052058 63 213 0.0 3.0 0.00 0.00 0.00 65 1012.1
20260904051607 63 214 0.0 2.0 0.00 0.00 0.00 65 1012.2
20260904051057 63 214 0.0 2.0 0.00 0.00 0.00 65 1012.3
20260904050558 63 214 0.0 2.0 0.00 0.00 0.00 65 1012.3
20260904050101 63 214 0.0 0.0 0.00 0.00 0.00 65 1012.3
20260904045557 63 214 0.0 1.0 0.00 0.00 0.00 64 1012.3
20260904045057 63 214 0.0 1.0 0.00 0.00 0.00 64 1012.3
20260904044557 63 214 0.0 2.0 0.00 0.00 0.00 63 1012.3
20260904044057 64 214 0.0 2.0 0.00 0.00 0.00 63 1012.3
20260904043556 64 214 0.0 2.0 0.00 0.00 0.00 62 1012.3
20260904043056 64 214 0.0 2.0 0.00 0.00 0.00 63 1012.3
20260904042556 64 214 0.0 0.0 0.00 0.00 0.00 62 1012.2
20260904042056 64 214 0.0 0.0 0.00 0.00 0.00 61 1012.1
20260904041555 64 214 0.0 2.0 0.00 0.00 0.00 60 1012.1
20260904041055 64 214 0.0 2.0 0.00 0.00 0.00 60 1012.0
20260904040555 64 214 0.0 1.0 0.00 0.00 0.00 60 1012.1
20260904040055 64 214 0.0 4.0 0.00 0.00 0.00 59 1012.1
20260904035554 64 214 0.0 4.0 0.00 0.00 0.00 58 1012.0
20260904035054 65 224 1.0 4.0 0.00 0.00 0.00 58 1012.0
20260904034554 65 243 1.0 3.0 0.00 0.00 0.00 57 1012.0
20260904034057 65 250 1.0 4.0 0.00 0.00 0.00 56 1012.0
20260904033556 65 255 1.0 4.0 0.00 0.00 0.00 54 1012.0
20260904033054 66 252 2.0 8.0 0.00 0.00 0.00 53 1011.9
20260904032554 66 259 3.0 8.0 0.00 0.00 0.00 51 1011.8
20260904032053 67 267 2.0 5.0 0.00 0.00 0.00 46 1011.8
20260904031558 67 271 2.0 4.0 0.00 0.00 0.00 44 1011.9
20260904031054 67 217 0.0 3.0 0.00 0.00 0.00 43 1011.8
20260904030553 67 217 1.0 4.0 0.00 0.00 0.00 43 1011.8
20260904030053 67 214 1.0 4.0 0.00 0.00 0.00 42 1011.8
20260904025553 67 215 0.0 3.0 0.00 0.00 0.00 42 1011.8
20260904025053 67 214 1.0 3.0 0.00 0.00 0.00 42 1011.8
20260904024552 67 215 1.0 5.0 0.00 0.00 0.00 41 1011.8
20260904024051 68 219 2.0 5.0 0.00 0.00 0.00 40 1011.9
20260904023551 68 229 1.0 4.0 0.00 0.00 0.00 40 1011.8
20260904023051 68 230 1.0 4.0 0.00 0.00 0.00 40 1011.9
20260904022551 69 221 1.0 5.0 0.00 0.00 0.00 40 1011.9
20260904022051 69 210 2.0 5.0 0.00 0.00 0.00 39 1011.8
20260904021551 69 218 1.0 5.0 0.00 0.00 0.00 39 1011.9
20260904021049 70 246 1.0 4.0 0.00 0.00 0.00 39 1011.9
20260904020549 70 238 1.0 4.0 0.00 0.00 0.00 39 1012.1
20260904020049 70 275 1.0 4.0 0.00 0.00 0.00 39 1012.1
20260904015548 70 276 1.0 5.0 0.00 0.00 0.00 39 1012.2
20260904015048 70 267 1.0 7.0 0.00 0.00 0.00 39 1012.2
20260904014603 70 257 2.0 5.0 0.00 0.00 0.00 39 1012.1
20260904014048 70 259 1.0 7.0 0.00 0.00 0.00 39 1012.1
20260904013548 71 221 3.0 8.0 0.00 0.00 0.00 39 1012.1
20260904013047 72 205 3.0 9.0 0.00 0.00 0.00 39 1012.3
20260904012546 72 187 4.0 9.0 0.00 0.00 0.00 39 1012.2
20260904012046 72 227 3.0 10.0 0.00 0.00 0.00 39 1012.3
20260904011546 72 275 2.0 7.0 0.00 0.00 0.00 39 1012.3
20260904011045 71 213 3.0 9.0 0.00 0.00 0.00 40 1012.2
20260904010545 71 277 4.0 8.0 0.00 0.00 0.00 40 1012.2
20260904010055 72 241 3.0 8.0 0.00 0.00 0.00 38 1012.2
20260904005548 72 277 2.0 9.0 0.00 0.00 0.00 38 1012.2
20260904005044 72 209 2.0 9.0 0.00 0.00 0.00 39 1012.3
20260904004544 73 263 2.0 8.0 0.00 0.00 0.00 40 1012.3
20260904004042 73 183 1.0 8.0 0.00 0.00 0.00 40 1012.2